Voltar ao catálogo

STARLINK-34696

AtivoComunicaçõesVLEO
NORAD 64808·PAYLOAD·🇺🇸 United States

Lançado Jul 16, 2025 de Vandenberg Space Force Base

Loading…

Próximas Passagens (próximas 24 horas)

TLE

AtualizadoSource: CelesTrak SupGP

Época: Sep 14, 2026, 23:04 UTC

1 64808C 25150U   26257.96159722 -.00049866  00000+0 -41787-2 0  2572
2 64808  70.0026  17.2921 0003720 268.0016 191.0399 14.98356230    14

Acompanhe STARLINK-34696 em tempo real com AllMySat

Download on the App Store